This is the latest recevied weather packets stored in our database for station/object KO6LQJ. If no packets are shown the sender has not sent any weather packets the latest 10 day(s).
| Time | Temp. | Humidity | Pressure | Rain* | Wind** | Luminosity | Snow |
|---|---|---|---|---|---|---|---|
| 1777909324 | 15.56° C | 67% | 1017.1 hPa | 0 mm | - | 133 W/m² | - |
| 1777909022 | 15.56° C | 67% | 1017.2 hPa | 0 mm | - | 73 W/m² | - |
| 1777908720 | 16.67° C | 64% | 1017.2 hPa | 0 mm | - | 88 W/m² | - |
| 1777908416 | 16.67° C | 65% | 1017.2 hPa | 0 mm | - | 112 W/m² | - |
| 1777908113 | 17.22° C | 64% | 1017.3 hPa | 0 mm | - | 196 W/m² | - |
| 1777907809 | 17.22° C | 64% | 1016.8 hPa | 0 mm | - | 181 W/m² | - |
| 1777907504 | 16.67° C | 66% | 1016.9 hPa | 0 mm | - | 263 W/m² | - |
| 1777907201 | 16.67° C | 65% | 1017 hPa | 0 mm | - | 193 W/m² | - |
| 1777906898 | 17.22° C | 63% | 1016.8 hPa | 0 mm | - | 164 W/m² | - |
| 1777906596 | 17.22° C | 62% | 1016.6 hPa | 0 mm | - | 211 W/m² | - |
| 1777906291 | 17.22° C | 62% | 1016.7 hPa | 0 mm | - | 128 W/m² | - |
| 1777905988 | 16.67° C | 62% | 1016.7 hPa | 0 mm | - | 71 W/m² | - |
| 1777905685 | 16.67° C | 66% | 1016.6 hPa | 0 mm | - | 162 W/m² | - |
| 1777905381 | 15.56° C | 69% | 1016.5 hPa | 0 mm | - | 136 W/m² | - |
| 1777905079 | 15.56° C | 69% | 1016.5 hPa | 0 mm | - | 125 W/m² | - |
| 1777904776 | 15° C | 71% | 1016.6 hPa | 0 mm | - | 117 W/m² | - |
| 1777904473 | 13.89° C | 73% | 1016.6 hPa | 0 mm | - | 101 W/m² | - |
| 1777904170 | 13.89° C | 74% | 1016.5 hPa | 0 mm | - | 52 W/m² | - |
| 1777903867 | 13.89° C | 75% | 1016.5 hPa | 0 mm | - | 43 W/m² | - |
| 1777903563 | 13.33° C | 75% | 1016.8 hPa | 0 mm | - | 49 W/m² | - |
| 1777903259 | 13.33° C | 75% | 1016.8 hPa | 0 mm | - | 36 W/m² | - |
| 1777902956 | 13.33° C | 75% | 1016.6 hPa | 0 mm | - | 29 W/m² | - |
| 1777902653 | 13.33° C | 75% | 1016.4 hPa | 0 mm | - | 34 W/m² | - |
| 1777902350 | 13.33° C | 75% | 1016.7 hPa | 0 mm | - | 25 W/m² | - |
| 1777902047 | 13.33° C | 75% | 1016.8 hPa | 0 mm | - | 21 W/m² | - |
* Rain latest hour (hover to see other rain measurements)
** Current wind speed in m/s (hover to see current wind gust speed)